Showing default

DSX, 44344

Orbit data source: Space-Track

DSX, 44344 is a payload satellite owned by AFRL/RV (US) that was launched on Tue, 25 Jun 2019 UTC via an FALCON HEAVY launch vehicle from the Air Force Eastern Test Range (AFETR). Payload-class satellites include a variety of spacecraft equipped with specific instruments for various scientific and technological missions. These include communications satellites like Starlink; space stations such as the ISS; scientific satellites like the Hubble; Earth observation satellites from companies like Planet Labs, Umbra, and HawkEye 360; GPS; miniature CubeSats for education and research; and military/defense satellites.

Loading next visibility...
Identifier
44344, 2019-036F
Orbit
Active
Country
Flag of USUS
Related business
Manufacturer
MicrosatSystems
Mission
Operational Defense Technology
Bus & Motor
ESPA, Unknown motor
Mass
668 kg wet, 668 kg dry
Launch date (UTC)
2019-06-25 (6 years ago)
Launch vehicle
FALCON HEAVY
Launch site
Air Force Eastern Test Range (AFETR)
Object type
Payload
Rocket body
Debris
Shape & HBR
Irr + 1 Ant, 27.0 m
Radar Cross Section
11.357 m², Large (>1 m²)

Expand to show TLE details & history
Last TLE update: 3 days ago

TLE from 3 days ago
0 DSX
1 44344U 19036F   25240.10574598 -.00000025  00000-0  00000-0 0  9998
2 44344  42.2354  97.8547 1961840 250.0444  87.8936  4.54373999102477
Epoch: 2025-08-28T02:32Z
TLE epoch observation values (Epoch: 2025-08-28T02:32:16.452Z)
Latitude
-0.00004°
Longitude
83.223°
Altitude
9,491.155 km
Speed
4.935 km/s
True Right ascension
06h 31m 27s
True Declination
0° 00' 00"
Sunlit
Object was in daylight at epoch
Visualization orbit readout
Latitude
Unknown
Longitude
Unknown
Altitude
Unknown
Speed
Unknown
Apparent Right ascension
Unknown
Apparent Declination
Unknown
Sunlit
N/A
Visualization observer readout
Local Sidereal Time
03:37:04
Azimuth
Unknown
Elevation
Unknown
Doppler factor
Unknown
Orbital elements
Apogee altitude
12,041.682 km
Perigee altitude
5,999.679 km
Semi-major axis
15,398.817 km
Eccentricity
0.19618
Inclination
42.2354°
RAAN
97.8547°
Arg. of periapsis
250.0444°
True anomaly
110.00207°
Mean anomaly
87.8936°
Eccentric anomaly
98.99585°
Mean motion
1.13583 °/min
Orbital period
316.95 mins
BSTAR
0
Loading maneuver chart data...
Computing Atmospheric mass density...
Loading historical data...
Loading historical data...
Loading historical data...
Loading historical data...
Loading historical data...
Loading historical data...
Loading historical data...

Documentation

Showing up to 5 results
|